Regional Weather Roundup
Issued by NWS Sioux Falls, SD

Home | Current Version | Previous Version | Text Only | Print | Product List | Glossary Off
Versions: 1 2 3 4 5 6 7 8 9 10 11 12 13 14 15 16 17 18 19 20 21 22 23 24 25 26 27 28 29 30 31 32 33 34 35 36 37 38 39 40 41 42 43 44 45 46 47 48 49 50

000
ASUS43 KFSD 211202
RWRFSD

WEATHER ROUNDUP FOR SE SOUTH DAKOTA/SW MINNESOTA/NW IOWA
NATIONAL WEATHER SERVICE SIOUX FALLS SD
700 AM CDT SAT OCT 21 2017

NOTE: "FAIR" INDICATES FEW OR NO CLOUDS BELOW 12,000 FEET WITH NO
SIGNIFICANT WEATHER AND OR OBSTRUCTIONS TO VISIBILITY.


SDZ038>040-050-052>070-211300-
SOUTHEAST SOUTH DAKOTA

CITY           SKY/WX    TMP DP  RH WIND       PRES   REMARKS
BROOKINGS      CLOUDY    63  58  83 S12       29.50F
CHAMBERLAIN    CLEAR     59  46  62 NW17G26   29.51R
6HR MIN TEMP:  59; 6HR MAX TEMP:  69;

HURON          PTCLDY    61  57  87 S9G18     29.44R
6HR MIN TEMP:  61; 6HR MAX TEMP:  68;

MADISON        CLOUDY    63  63 100 S16G22    29.50S
MITCHELL       CLOUDY    63  58  83 S10       29.45S
6HR MIN TEMP:  62; 6HR MAX TEMP:  69;

SIOUX FALLS    MOCLDY    65  60  84 S17       29.51S
6HR MIN TEMP:  65; 6HR MAX TEMP:  68;

WINNER         FAIR      57  44  62 NW18G30   29.54R
YANKTON        MOCLDY    68  61  78 SE13      29.49F
$$

MNZ071-072-080-081-089-090-097-098-211300-
SOUTHWEST MINNESOTA

CITY           SKY/WX    TMP DP  RH WIND       PRES   REMARKS
FAIRMONT       TSTM      60  59  96 S20G32    29.66S
JACKSON        CLOUDY    61  55  82 SE17G26   29.64F
MARSHALL       CLOUDY    65  58  78 S17       29.54R
6HR MIN TEMP:  64; 6HR MAX TEMP:  66;

MONTEVIDEO     MOCLDY    63  57  82 S9G16     29.53R
PIPESTONE      CLOUDY    63  55  77 S16G22    29.54R
REDWOOD FALLS  MOCLDY    63  55  75 S21       29.56F
TRACY          CLOUDY    65  60  82 S17G25    29.55S
WORTHINGTON    LGT RAIN  63  58  83 S18G25    29.59S
$$

IAZ001>003-012>014-020>022-031-032-NEZ013-014-SDZ071-211300-
NORTHWEST IOWA

CITY           SKY/WX    TMP DP  RH WIND       PRES   REMARKS
CHEROKEE       CLOUDY    64  62  94 S20G30    29.60S
DENISON        CLOUDY    64  61  88 S18G31    29.66S FOG
ESTHERVILLE    LGT RAIN  59  59 100 S17G23    29.65S FOG
LE MARS        CLOUDY    66  61  82 S20G30    29.54R
ORANGE CITY    DRIZZLE   66  63  88 S12G20    29.57R
SHELDON        CLOUDY    64  61  88 SE14G24   29.58R
SIOUX CITY     CLOUDY    65  62  90 SE15G22   29.55S
6HR MIN TEMP:  65; 6HR MAX TEMP:  67;

SPENCER        LGT RAIN  62  60  93 S18G25    29.62S
6HR MIN TEMP:  61; 6HR MAX TEMP:  64; 6HR PCP:  0.03;

STORM LAKE     CLOUDY    63  61  94 S21       29.63F
$$

ABBREVIATIONS USED IN REMARKS
   TC - TEMPERATURE IN CELSIUS
  WCI - WIND CHILL INDEX
   HX - HEAT INDEX
  VSB - VISIBILITY





USA.gov is the U.S. government's official web portal to all federal, state and local government web resources and services.